Location: Muenchen
(48.1800°N, 11.5800°E)
Time: 14:14:13
(UTC+02:00)

Sich 1 Rocket - Visible Passes

Search period start: 01 October 2014 00:00
Search period end: 11 October 2014 00:00
Orbit: 619 x 653 km, 82.5° (Epoch: 30 September)

Date Brightness Start Highest point End Pass type
(mag) Time Alt. Az. Time Alt. Az. Time Alt. Az.
01 Oct 4.0 21:02:11 10° N 21:06:00 47° NE 21:06:00 47° NE visible
01 Oct 6.2 22:41:22 10° NW 22:43:31 17° WNW 22:43:31 17° WNW visible
02 Oct 5.4 19:48:19 10° NNE 19:50:30 13° ENE 19:51:17 13° ENE visible
02 Oct 3.9 21:24:50 10° NNW 21:28:49 66° NNW 21:28:49 66° NNW visible
03 Oct 4.7 20:09:57 10° NNE 20:13:37 24° ENE 20:14:09 23° E visible
03 Oct 4.8 21:47:47 10° NNW 21:51:41 39° W 21:51:41 39° W visible
04 Oct 3.9 20:32:13 10° N 20:36:34 44° ENE 20:37:03 42° E visible
04 Oct 5.9 22:11:07 10° NW 22:14:29 21° W 22:14:35 21° W visible
05 Oct 5.5 19:18:55 10° NE 19:20:22 11° ENE 19:21:48 10° E visible
05 Oct 3.5 20:54:49 10° N 20:59:22 87° E 21:00:01 65° SSE visible
05 Oct 6.6 22:35:44 10° WNW 22:36:48 11° W 22:37:33 10° W visible
06 Oct 4.9 19:40:07 10° NNE 19:43:30 21° ENE 19:45:32 16° ESE visible
06 Oct 4.5 21:17:41 10° NNW 21:22:01 47° W 21:23:04 39° SW visible
07 Oct 4.1 20:02:17 10° N 20:06:29 37° ENE 20:08:39 23° SE visible
07 Oct 5.7 21:40:54 10° NW 21:44:31 24° W 21:46:12 19° WSW visible
08 Oct 3.5 20:24:48 10° N 20:29:19 74° E 20:31:55 25° SSE visible
08 Oct 6.5 22:04:56 10° NW 22:06:53 13° W 22:08:48 10° WSW visible
09 Oct 5.1 19:10:19 10° NNE 19:13:23 18° ENE 19:16:25 10° ESE visible
09 Oct 4.2 20:47:36 10° NNW 20:52:00 55° W 20:55:20 16° SSW visible
10 Oct 4.3 19:32:21 10° N 19:36:24 32° ENE 19:40:23 10° SE visible
10 Oct 5.5 21:10:43 10° NNW 21:14:32 28° W 21:18:18 10° SSW visible
